Weather History for Calgary Springbank, AB

Change the Weather History Date:

Saturday, October 5, 2013

  Actual Average Record
Temperature  
Mean Temperature 44 °F -  
Max Temperature 55 °F 46 °F 75 °F (2003)
Min Temperature 32 °F 24 °F 14 °F (2001)
Degree Days  
Heating Degree Days 22    
Moisture  
Dew Point 33 °F    
Average Humidity 49    
Maximum Humidity 54    
Minimum Humidity 35    
Precipitation  
Precipitation 0.00 in - - ()
Sea Level Pressure  
Sea Level Pressure 30.15 in    
Wind  
Wind Speed 13 mph ()    
Max Wind Speed 22 mph    
Max Gust Speed 34 mph    
Visibility 15.0 miles    
Events      
Averages and records for this station are not official NWS values.
T = Trace of Precipitation, MM = Missing Value Source: Averaged Metar Reports

Daily Weather History Graph

Daily Weather History Graph

Search for Another Location

Airport:

Trip Planner

Search our weather history database for the weather conditions in past years. The results will help you decide how hot, cold, wet, or windy it might be!

Date:

Astronomy

Oct. 05, 2013 Rise Set
Actual Time 7:45 AM MDT 7:05 PM MDT
Civil Twilight 7:12 AM MDT 7:38 PM MDT
Nautical Twilight 6:33 AM MDT 8:16 PM MDT
Astronomical Twilight 5:54 AM MDT 8:55 PM MDT
Moon 8:37 AM MDT (10/5) 7:15 PM MDT (10/5)
Length of Visible Light 12h 26m
Length of Day
11h 20m
New Moon, 1% of the Moon is Illuminated
Oct 5
New Moon
Oct 11
First Quarter
Oct 18
Full
Oct 26
Last Quarter
Nov 3
New

Hourly Weather History & Observations

Time (MDT) Temp. Windchill Dew Point Humidity Pressure Visibility Wind Dir Wind Speed Gust Speed Precip Events Conditions
5:00 AM 44.6 °F 39.7 °F 28.4 °F 53% 30.17 in 15.0 mi WNW 9.2 mph - N/A   Partly Cloudy
6:00 AM 49 °F - 30 °F 35% 30.17 in 15 mi West 19.6 mph - -   Scattered Clouds
6:00 AM 48.2 °F - 30.2 °F 50% 30.16 in 15.0 mi West 17.3 mph 26.5 mph N/A   Partly Cloudy
7:00 AM 48.2 °F - 30.2 °F 50% 30.21 in 15.0 mi West 15.0 mph 23.0 mph N/A   Mostly Cloudy
8:00 AM 48.2 °F - 30.2 °F 50% 30.21 in 30.0 mi West 16.1 mph 25.3 mph N/A   Overcast
9:00 AM 50.0 °F - 32.0 °F 50% 30.19 in 30.0 mi West 20.7 mph 28.8 mph N/A   Overcast
10:00 AM 51.8 °F - 32.0 °F 47% 30.21 in 30.0 mi West 21.9 mph - N/A   Overcast
11:00 AM 51.8 °F - 32.0 °F 47% 30.19 in 30.0 mi WNW 11.5 mph 21.9 mph N/A   Overcast
12:00 PM 50 °F - 34 °F 42% 30.18 in 28 mi WNW 9.2 mph - -   Mostly Cloudy
12:00 PM 50.0 °F - 33.8 °F 54% 30.18 in 30.0 mi WNW 8.1 mph - N/A   Mostly Cloudy
1:00 PM 51.8 °F - 33.8 °F 50% 30.15 in 30.0 mi West 11.5 mph - N/A   Overcast
1:06 PM 53.6 °F - 33.8 °F 47% 30.15 in 30.0 mi West 19.6 mph 28.8 mph N/A   Overcast
2:00 PM 51.8 °F - 35.6 °F 54% 30.13 in 40.0 mi West 21.9 mph 34.5 mph N/A   Overcast
3:00 PM 53.6 °F - 35.6 °F 51% 30.11 in 40.0 mi West 15.0 mph - N/A   Overcast
4:00 PM 55.4 °F - 37.4 °F 51% 30.11 in 40.0 mi WSW 11.5 mph - N/A   Mostly Cloudy
5:00 PM 55.4 °F - 37.4 °F 51% 30.11 in 40.0 mi West 18.4 mph 25.3 mph N/A   Mostly Cloudy
6:00 PM 55.4 °F - 35.6 °F 47% 30.10 in 40.0 mi West 17.3 mph 28.8 mph N/A   Mostly Cloudy
7:00 PM 53.6 °F - 35.6 °F 51% 30.05 in 40.0 mi West 12.7 mph - N/A   Mostly Cloudy
8:00 PM 51.8 °F - 33.8 °F 50% 30.11 in 15.0 mi West 12.7 mph 20.7 mph N/A   Mostly Cloudy
9:00 PM 51.8 °F - 33.8 °F 50% 30.11 in 15.0 mi West 20.7 mph - N/A   Mostly Cloudy
10:00 PM 50.0 °F - 33.8 °F 54% 30.12 in 15.0 mi WSW 15.0 mph - N/A   Scattered Clouds